Vorticity
-0 10 12 10 15 14 15 8 7 7 10 19 11 8 16 17 29 22 13 2 7 18
5 9 8 16 9 15 12 8 7 9 9 16 14 9 20 18 21 22 12 16 4 7
7 7 10 8 12 21 19 3 12 6 16 16 11 4 8 23 13 10 15 10 13 4
10 12 7 13 11 6 5 13 1 11 12 17 11 6 4 16 18 16 6 12 11 11
10 18 16 9 8 7 7 12 16 11 15 12 9 10 14 11 27 26 5 6 10 10
13 18 15 19 9 16 4 9 -3 19 17 8 14 15 15 19 32 9 12 7 20 18
17 27 6 7 17 10 6 14 4 8 7 14 11 13 12 12 23 16 21 2 16 8
22 16 7 13 11 7 4 6 29 17 10 16 13 16 29 11 19 24 10 25 13 3
6 19 14 2 -1 14 31 9 14 18 12 14 23 17 34 6 12 16 20 24 25 2
-0 10 14 23 7 14 23 14 17 10 12 11 13 25 29 14 22 26 19 27 -20 28
26 20 8 24 4 20 20 13 6 14 13 31 10 10 35 35 30 -1 11 2 8 11
4 16 14 17 5 13 15 12 11 9 14 12 22 38 15 19 30 34 0 14 2 5
0 9 9 6 17 11 16 12 17 8 20 11 18 11 9 7 23 16 16 39 57 30
13 5 12 12 9 3 7 13 11 13 4 22 14 15 12 12 16 19 14 19 15 14
Height
3033 3031 3029 3027 3026 3024 3024 3025 3025 3023 3021 3021 3022 3023 3024 3025 3028 3032 3037 3042 3045 3048
3025 3023 3020 3018 3017 3015 3014 3014 3015 3014 3013 3012 3013 3014 3014 3014 3017 3020 3025 3030 3035 3037
3016 3014 3011 3009 3008 3006 3005 3005 3005 3004 3003 3002 3003 3004 3003 3004 3007 3010 3014 3019 3023 3027
3006 3003 3002 3001 3000 2998 2997 2997 2996 2994 2993 2992 2993 2993 2993 2994 2997 3000 3005 3008 3013 3016
2997 2994 2992 2992 2991 2990 2990 2988 2986 2984 2983 2982 2982 2982 2981 2982 2985 2989 2994 2998 3002 3006
2987 2985 2983 2982 2982 2982 2980 2979 2978 2976 2974 2973 2971 2971 2971 2971 2973 2978 2983 2989 2993 2995
2978 2976 2975 2974 2973 2972 2971 2970 2968 2968 2965 2963 2961 2961 2960 2960 2962 2966 2972 2978 2983 2987
2970 2969 2968 2966 2966 2964 2963 2961 2959 2958 2956 2954 2952 2951 2951 2950 2952 2956 2962 2968 2974 2979
2964 2963 2961 2960 2959 2957 2954 2953 2951 2950 2948 2946 2944 2942 2942 2943 2946 2950 2955 2960 2967 2972
2959 2957 2955 2953 2953 2950 2948 2947 2946 2945 2943 2940 2937 2936 2935 2938 2940 2945 2951 2956 2962 2966
2954 2952 2951 2948 2947 2945 2944 2943 2943 2941 2938 2936 2936 2933 2933 2934 2936 2942 2948 2953 2957 2960
2950 2947 2945 2944 2944 2942 2941 2940 2940 2939 2937 2936 2936 2935 2932 2933 2935 2939 2944 2948 2952 2955
2946 2944 2943 2943 2942 2941 2940 2939 2938 2938 2937 2937 2937 2938 2937 2937 2938 2940 2942 2945 2947 2950
2942 2943 2943 2942 2941 2940 2939 2939 2938 2938 2938 2939 2939 2940 2940 2942 2943 2944 2946 2948 2951 2953